Total_Precipitation_Accumulation
3.00 2.63 4.27 4.49 4.07 3.68 3.40 3.50 3.76 3.75 3.86 3.88 3.78 3.44 3.30 3.31 3.53 3.62 3.39 3.09 3.00 3.09 3.49 3.72 3.72 3.76 3.60 3.55 3.56 3.69 3.92 4.13 4.14 3.73 3.67 3.70 3.57 3.46 3.48 3.55 3.73 4.10 3.79
2.18 2.24 3.74 4.25 4.04 3.80 3.67 3.64 3.73 3.80 3.80 3.73 3.54 3.42 3.11 3.00 3.37 3.80 3.57 3.34 3.14 3.14 3.22 3.42 3.65 3.84 3.79 3.76 3.96 4.03 4.07 4.13 4.27 3.97 3.97 4.05 3.95 3.77 3.45 3.51 3.97 4.24 3.69
1.88 2.05 2.92 4.02 3.93 3.64 3.74 3.70 3.61 3.57 3.50 3.44 3.32 3.09 3.02 2.96 3.09 3.44 3.43 3.33 3.12 3.09 3.30 3.42 3.59 3.81 3.86 3.89 4.16 4.28 4.19 4.17 4.13 3.91 4.04 4.35 3.99 4.03 3.85 3.69 3.64 3.64 3.51
1.53 1.76 2.39 3.45 3.38 3.34 3.38 3.15 3.07 3.08 3.01 3.09 3.11 2.92 2.94 3.04 3.15 3.42 3.37 3.18 2.96 2.85 3.01 3.28 3.55 3.64 3.69 3.80 3.96 4.21 4.09 4.16 4.04 3.59 3.64 4.06 4.08 4.16 4.17 3.94 3.70 3.59 3.72
1.29 1.62 2.47 3.32 3.11 3.11 3.06 2.78 2.83 2.77 2.78 2.88 2.98 2.89 3.02 3.03 3.10 3.34 3.42 3.38 3.25 3.23 3.20 3.38 3.50 3.55 3.73 3.79 3.92 4.12 4.11 4.03 3.78 3.16 3.18 3.72 4.53 4.56 4.22 4.08 3.93 3.86 3.95
1.31 1.49 2.16 2.93 2.83 2.75 2.65 2.69 2.74 2.68 2.67 2.68 2.80 2.88 2.97 3.06 3.06 3.29 3.47 3.36 3.16 3.34 3.55 3.72 3.68 3.68 3.79 3.88 3.82 3.98 4.16 3.89 3.31 3.18 3.41 3.85 4.37 4.46 4.08 3.87 3.94 4.09 4.32
1.17 1.23 1.70 2.53 2.58 2.52 2.53 2.63 2.74 2.65 2.69 2.60 2.68 2.91 2.99 3.01 3.09 3.26 3.50 3.44 3.13 3.22 3.66 3.87 3.90 3.86 3.75 3.72 3.83 3.76 3.92 3.60 3.11 3.25 3.49 3.82 4.05 4.33 4.06 3.86 3.99 4.19 4.52
1.27 1.19 1.42 2.19 2.38 2.31 2.47 2.49 2.57 2.71 2.69 2.60 2.64 2.71 2.84 2.95 2.96 3.09 3.20 3.21 3.07 3.09 3.29 3.43 3.45 3.65 3.51 3.47 3.55 3.44 3.42 2.93 2.49 2.67 3.05 3.65 4.29 4.41 3.93 3.69 3.73 4.00 4.27
1.53 1.47 1.56 1.81 2.01 2.24 2.42 2.42 2.57 2.73 2.69 2.55 2.46 2.48 2.50 2.63 2.63 2.69 2.81 3.00 3.04 3.16 3.21 3.21 3.38 3.54 3.47 3.41 3.28 3.35 3.32 2.77 2.43 2.65 2.61 3.57 4.57 4.63 4.15 3.75 3.58 3.77 4.05
1.46 1.45 1.50 1.65 1.74 1.81 1.99 2.40 2.69 3.05 2.93 2.51 2.26 2.12 2.27 2.35 2.33 2.47 2.58 2.91 3.20 3.41 3.65 3.61 3.69 3.50 3.38 3.17 2.93 3.03 2.96 2.49 2.52 2.49 2.91 3.70 4.91 4.91 4.43 3.94 3.55 3.41 3.56
1.15 1.20 1.30 1.40 1.47 1.57 1.57 1.86 2.42 2.90 2.89 2.41 2.04 2.02 1.95 1.77 1.76 1.96 2.23 2.77 3.15 3.43 3.76 3.79 3.63 3.37 3.04 2.81 2.63 2.54 2.26 2.20 2.46 2.60 3.10 4.01 4.80 4.93 4.37 3.82 3.49 3.44 3.36
1.00 0.96 0.99 0.98 1.08 1.17 1.19 1.54 1.89 1.92 2.14 1.90 1.81 1.75 1.73 1.78 1.81 1.55 1.74 2.31 2.73 3.05 3.33 3.55 3.44 2.98 2.32 2.09 2.18 2.13 1.84 1.84 2.08 2.38 3.13 4.28 4.94 4.95 4.32 3.88 3.60 3.58 3.36
0.90 0.88 0.82 0.80 0.87 1.02 1.19 1.34 1.57 1.75 1.91 1.89 1.82 1.83 1.92 1.88 1.61 1.47 1.56 1.73 2.03 2.35 2.48 2.72 2.71 2.22 1.85 1.75 1.88 1.86 1.74 1.73 2.06 2.36 3.14 4.25 5.01 5.08 4.39 3.95 3.73 3.79 3.72
0.75 0.84 0.80 0.66 0.68 0.78 0.86 1.03 1.19 1.41 1.64 1.72 1.55 1.52 1.71 1.78 1.61 1.48 1.66 1.72 1.93 2.22 2.50 2.60 2.39 2.04 1.66 1.51 1.65 1.68 1.57 1.70 1.95 2.20 2.83 3.58 4.48 5.01 4.78 4.35 4.12 3.94 3.94
0.76 0.82 0.85 0.75 0.71 0.75 0.82 0.89 0.91 1.20 1.39 1.56 1.62 1.42 1.57 1.66 1.62 1.51 1.47 1.65 1.74 2.04 2.30 2.45 2.34 2.12 1.84 1.58 1.55 1.53 1.61 1.65 1.73 1.84 2.30 2.83 3.38 4.25 4.72 4.68 4.55 4.46 4.42
0.75 0.83 0.83 0.83 0.80 0.81 0.83 0.84 0.84 0.91 1.00 1.11 1.08 1.08 1.24 1.39 1.41 1.44 1.36 1.45 1.63 1.98 2.41 2.55 2.29 2.14 1.94 1.81 1.78 1.70 1.67 1.65 1.69 1.67 1.91 2.23 2.36 2.83 3.58 4.26 4.63 4.68 4.71
0.76 0.81 0.87 0.90 0.96 0.95 0.93 0.98 0.97 0.93 0.95 0.95 0.93 0.93 1.02 1.14 1.21 1.31 1.38 1.41 1.54 1.90 2.37 2.66 2.52 2.30 2.03 1.96 1.92 1.84 1.74 1.75 1.70 1.62 1.75 1.99 1.96 2.10 2.64 3.43 4.26 4.65 4.60
0.78 0.74 0.79 0.81 0.90 0.92 0.94 0.98 1.08 1.09 1.10 1.08 1.10 1.07 1.01 1.15 1.25 1.34 1.45 1.42 1.48 1.80 2.23 2.60 2.72 2.73 2.50 2.32 2.17 2.02 1.90 2.04 1.89 1.75 1.80 1.97 2.12 1.98 2.10 2.58 3.31 4.13 4.47
0.77 0.72 0.70 0.74 0.75 0.77 0.78 0.84 0.97 1.07 1.15 1.23 1.24 1.23 1.24 1.31 1.33 1.43 1.64 1.67 1.67 1.91 2.13 2.25 2.48 2.67 2.74 2.55 2.21 2.11 1.99 2.11 2.23 2.13 2.18 2.26 2.29 2.21 2.09 2.13 2.50 3.00 3.75
0.74 0.76 0.73 0.72 0.71 0.67 0.67 0.75 0.89 1.00 1.07 1.26 1.33 1.37 1.66 1.77 1.55 1.51 1.68 1.73 1.79 2.07 2.19 2.32 2.61 2.72 2.80 2.81 2.40 2.19 2.10 2.09 2.15 2.36 2.49 2.49 2.48 2.28 2.24 2.11 2.32 2.46 3.08
0.57 0.59 0.67 0.68 0.76 0.75 0.64 0.62 0.77 0.93 1.09 1.25 1.43 1.43 1.65 1.76 1.64 1.68 1.75 1.79 1.84 1.98 2.06 2.21 2.67 2.83 2.84 2.74 2.83 2.76 2.57 2.28 2.17 2.25 2.39 2.60 2.70 2.52 2.45 2.47 2.40 2.37 2.51
0.52 0.50 0.54 0.61 0.72 0.83 0.83 0.81 0.90 1.11 1.24 1.36 1.55 1.58 1.64 1.64 1.62 1.55 1.78 1.94 1.91 2.07 2.13 2.30 2.68 3.02 2.87 2.76 3.15 3.58 3.31 2.97 2.55 2.25 2.29 2.35 2.59 2.63 2.50 2.37 2.25 2.24 2.33
0.42 0.41 0.47 0.61 0.78 0.97 1.14 1.38 1.60 1.89 2.05 1.91 1.79 1.87 1.95 1.99 1.91 1.84 1.94 2.11 2.07 2.14 2.25 2.30 2.45 3.03 3.29 3.10 3.05 3.63 3.52 3.30 3.21 2.62 2.18 2.07 2.35 2.58 2.61 2.46 2.32 2.33 2.36
0.44 0.52 0.64 0.82 0.99 1.19 1.42 1.66 1.95 2.21 2.41 2.36 2.37 2.44 2.38 2.29 2.18 2.03 2.07 2.18 2.22 2.28 2.25 2.09 2.28 2.84 3.43 3.54 3.30 3.03 2.87 2.80 2.96 2.93 2.36 1.99 2.03 2.25 2.50 2.41 2.38 2.45 2.49
0.62 0.77 0.91 1.21 1.41 1.54 1.61 1.73 2.00 2.09 2.17 2.25 2.36 2.41 2.41 2.33 2.22 2.09 2.03 2.20 2.29 2.34 2.30 2.34 2.49 2.81 3.16 3.50 3.51 3.27 2.96 2.68 2.22 2.41 2.50 2.28 1.96 1.88 1.97 2.12 2.28 2.38 2.43
0.96 1.23 1.37 1.54 1.78 1.73 1.65 1.67 1.79 1.94 2.04 2.13 2.25 2.28 2.22 2.10 2.07 2.05 2.07 2.09 2.10 2.18 2.25 2.39 2.62 2.77 2.96 3.19 3.29 2.99 2.86 2.79 2.53 2.33 2.18 2.27 2.24 1.94 1.75 1.72 1.85 2.08 2.19